"Pseudo-MPEC" for P22mZLU

Created 2026 May 8 1:35:06 UT using Find_Orb

Click here for an explanation of pseudo-MPECs

 
 Astrometry: 
     P22mZLU*0C2026 05 06.27052111 35 59.709-20 46 47.28   ~568o 21.52wXNEOCPF52
     P22mZLU 0C2026 05 06.29228111 36 02.194-20 45 44.96   ~568o 20.95wXNEOCPF52
     P22mZLU 0C2026 05 06.30312511 36 03.440-20 45 13.84   ~568o 21.05wXNEOCPF52
     P22mZLU 0C2026 05 06.40485711 36 15.150-20 40 20.55   ~56GZ 20.60GVNEOCPF52
     P22mZLU 0C2026 05 06.40572111 36 15.244-20 40 18.29   ~56GZ 20.64GVNEOCPF52
     P22mZLU KB2026 05 06.99836811 37 29.424-20 11 42.32   ~571Z 21.0 VZNEOCPY05
     P22mZLU KB2026 05 07.01292811 37 31.120-20 11 00.45   ~571Z 20.1 VZNEOCPY05

Station data:
(F52) Pan-STARRS 2, Haleakala  (N20.707382 W156.255910)  US/Hawaii.
   Observers J. Herman, T. Lowe, P. Minguez, A. Schultz, I. Smith. Measurers
   K. Chambers, T. de Boer, J. Fairlamb, H. Gao, M. Huber, C.-C. Lin, E.
   Magnier, Y. Ramanjooloo, R. Wainscoat, R. Weryk. 1.8-m Ritchey-Chrétien +
   CCD.
(Y05) SONEAR Wykrota-CEAMIG, Serra da Piedade  (S19.824251 W43.690000)
   Brazil.  Observer C. Jacques. 0.45-m f/2.9 reflector + CMO.

Orbital elements:  P22mZLU
   Perihelion 2026 Jun 6.125070 +/- 1.08 TT =  3:00:06.0 (JD 2461197.625070)
Epoch 2026 May  7.0 TT = JDT 2461167.5   Earth MOID: 0.3022   Ju: 0.0115
M 354.718567813 +/- 0.9             (J2000 ecliptic)             AutoNEOCP
n   0.175316845 +/- 0.0368          Peri.    7.530470 +/- 1.4
a   3.161697272 +/- 0.442           Node   229.401896 +/- 0.26
e   0.58561583 +/- 0.0589           Incl.   23.689193 +/- 0.40
P   5.62187                H 20.57  G  0.15   U 10.5
q 1.310157299 +/- 0.00653    Q 5.013237244 +/- 0.886
From 7 observations 2026 May 6-7 (17.8 hr); mean residual 0".07
Residuals in arcseconds: 
260506 F52  .03-  .03-    260506 F52  .04+  .11+    260507 Y05  .04-  .10-    
260506 F52  .03-  .01+    260506 F52  .05-  .13-    
260506 F52  .07+  .04+    260506 Y05  .04+  .10+    

Ephemerides (geocentric):
Date (UTC) HH   RA             Dec           delta  r     elong  mag " sig PA
---- --------  ------------   ------------  ------ ------ -----  --- --------
2026 05 08 02  11 39 47.366   -19 19 21.80  .44500 1.3517 132.8 20.9 3.67  19
2026 05 08 03  11 39 52.742   -19 17 20.72  .44494 1.3516 132.8 20.9 3.89  20
2026 05 08 04  11 39 58.125   -19 15 19.61  .44488 1.3515 132.8 20.9 4.12  20
2026 05 08 05  11 40 03.514   -19 13 18.46  .44482 1.3513 132.8 20.9 4.36  20
2026 05 08 06  11 40 08.910   -19 11 17.29  .44477 1.3512 132.8 20.9 4.60  20
2026 05 08 07  11 40 14.311   -19 09 16.08  .44471 1.3511 132.7 20.9 4.85  20
2026 05 08 08  11 40 19.719   -19 07 14.84  .44465 1.3510 132.7 20.9 5.11  21
2026 05 08 09  11 40 25.132   -19 05 13.57  .44459 1.3509 132.7 20.9 5.37  21
2026 05 08 10  11 40 30.552   -19 03 12.26  .44454 1.3508 132.7 20.9 5.64  21
2026 05 08 11  11 40 35.978   -19 01 10.93  .44448 1.3507 132.7 20.9 5.91  21
2026 05 08 12  11 40 41.410   -18 59 09.56  .44442 1.3505 132.7 20.9 6.19  21
2026 05 08 13  11 40 46.849   -18 57 08.17  .44437 1.3504 132.6 20.9 6.48  21
2026 05 08 14  11 40 52.293   -18 55 06.74  .44431 1.3503 132.6 20.9 6.77  21
2026 05 08 15  11 40 57.744   -18 53 05.28  .44426 1.3502 132.6 20.9 7.07  21
2026 05 08 16  11 41 03.200   -18 51 03.80  .44420 1.3501 132.6 20.9 7.38  22
2026 05 08 17  11 41 08.663   -18 49 02.28  .44415 1.3500 132.6 20.9 7.69  22
2026 05 08 18  11 41 14.132   -18 47 00.74  .44409 1.3499 132.5 20.9 8.01  22
2026 05 08 19  11 41 19.607   -18 44 59.16  .44404 1.3497 132.5 20.9 8.33  22
2026 05 08 20  11 41 25.088   -18 42 57.56  .44399 1.3496 132.5 20.9 8.66  22
2026 05 08 21  11 41 30.576   -18 40 55.92  .44393 1.3495 132.5 20.9 9.00  22
2026 05 08 22  11 41 36.069   -18 38 54.26  .44388 1.3494 132.5 20.9 9.35  22
2026 05 08 23  11 41 41.568   -18 36 52.58  .44383 1.3493 132.5 20.9 9.70  22
2026 05 09 00  11 41 47.074   -18 34 50.86  .44378 1.3492 132.4 20.9 10.1  22
2026 05 09 01  11 41 52.585   -18 32 49.11  .44372 1.3491 132.4 20.9 10.4  22
2026 05 09 02  11 41 58.103   -18 30 47.34  .44367 1.3489 132.4 20.9 10.8  22
2026 05 09 03  11 42 03.627   -18 28 45.54  .44362 1.3488 132.4 20.9 11.2  22
2026 05 09 04  11 42 09.156   -18 26 43.72  .44357 1.3487 132.4 20.9 11.5  23
2026 05 09 05  11 42 14.692   -18 24 41.87  .44352 1.3486 132.3 20.9 11.9  23
2026 05 09 06  11 42 20.234   -18 22 39.99  .44347 1.3485 132.3 20.9 12.3  23
2026 05 09 07  11 42 25.782   -18 20 38.08  .44342 1.3484 132.3 20.9 12.7  23
2026 05 09 08  11 42 31.336   -18 18 36.15  .44337 1.3483 132.3 20.9 13.1  23
2026 05 09 09  11 42 36.895   -18 16 34.20  .44332 1.3482 132.3 20.9 13.6  23
2026 05 09 10  11 42 42.461   -18 14 32.21  .44327 1.3480 132.2 20.9 14.0  23
2026 05 09 11  11 42 48.033   -18 12 30.21  .44322 1.3479 132.2 20.9 14.4  23
2026 05 09 12  11 42 53.611   -18 10 28.18  .44317 1.3478 132.2 20.9 14.8  23
2026 05 09 13  11 42 59.195   -18 08 26.12  .44313 1.3477 132.2 20.9 15.3  23
2026 05 09 14  11 43 04.785   -18 06 24.04  .44308 1.3476 132.2 20.9 15.7  23
2026 05 09 15  11 43 10.381   -18 04 21.93  .44303 1.3475 132.2 20.9 16.2  23
2026 05 09 16  11 43 15.983   -18 02 19.81  .44299 1.3474 132.1 20.9 16.6  23
2026 05 09 17  11 43 21.591   -18 00 17.65  .44294 1.3473 132.1 20.9 17.1  23
2026 05 09 18  11 43 27.205   -17 58 15.48  .44289 1.3472 132.1 20.9 17.6  23
2026 05 09 19  11 43 32.825   -17 56 13.28  .44285 1.3471 132.1 20.9 18.0  23
2026 05 09 20  11 43 38.451   -17 54 11.06  .44280 1.3469 132.1 20.9 18.5  23
2026 05 09 21  11 43 44.083   -17 52 08.82  .44275 1.3468 132.0 20.9 19.0  23
2026 05 09 22  11 43 49.720   -17 50 06.55  .44271 1.3467 132.0 20.9 19.5  23
2026 05 09 23  11 43 55.364   -17 48 04.26  .44267 1.3466 132.0 20.9 20.0  23
2026 05 10 00  11 44 01.014   -17 46 01.95  .44262 1.3465 132.0 20.9 20.5  24
2026 05 10 01  11 44 06.669   -17 43 59.62  .44258 1.3464 132.0 20.9 21.1  24